OE6ATD-13 Weather Reports


time (UTC)temp
C
wind
direction
speed
KPH
gust
KPH
rain 1hr
cm
rain 24hr
cm
rain mn
cm
humidity
%
barometer
mb
20260507174526 16 39 16.1 32.2 0.00 0.00 0.00 59 1012.9
20260507173522 17 8 20.9 37.0 0.00 0.00 0.00 52 1012.0
20260507172517 19 17 12.9 41.8 0.00 0.00 0.00 53 1011.2
20260507171529 20 194 0.0 3.2 0.00 0.00 0.00 53 1010.4
20260507170524 20 180 4.8 11.3 0.00 0.00 0.00 52 1010.2
20260507165520 20 194 11.3 19.3 0.00 0.00 0.00 51 1009.9
20260507164516 20 202 9.7 14.5 0.00 0.00 0.00 50 1009.9
20260507163527 21 210 6.4 12.9 0.00 0.00 0.00 49 1009.9
20260507162523 22 175 8.0 14.5 0.00 0.00 0.00 42 1009.8
20260507161519 22 226 8.0 12.9 0.00 0.00 0.00 44 1009.8
20260507160530 21 180 8.0 11.3 0.00 0.00 0.00 51 1009.7
20260507155525 22 188 9.7 16.1 0.00 0.00 0.00 46 1009.5
20260507154521 23 186 11.3 19.3 0.00 0.00 0.00 44 1009.6
20260507153517 23 175 8.0 16.1 0.00 0.00 0.00 45 1009.6
20260507152527 23 180 14.5 22.5 0.00 0.00 0.00 46 1009.6
20260507151524 23 189 11.3 19.3 0.00 0.00 0.00 45 1009.5
20260507150519 23 215 9.7 19.3 0.00 0.00 0.00 45 1009.5
20260507145515 23 185 11.3 19.3 0.00 0.00 0.00 45 1009.7
20260507144526 23 201 9.7 19.3 0.00 0.00 0.00 46 1009.7
20260507143521 23 199 11.3 17.7 0.00 0.00 0.00 47 1009.8
20260507142517 23 189 12.9 22.5 0.00 0.00 0.00 46 1009.7
20260507141528 23 225 9.7 19.3 0.00 0.00 0.00 46 1009.8
20260507140524 23 180 12.9 19.3 0.00 0.00 0.00 47 1009.8
20260507135520 22 183 11.3 24.1 0.00 0.00 0.00 50 1009.9
20260507134515 22 181 11.3 22.5 0.00 0.00 0.00 47 1010.0
20260507133526 22 191 9.7 16.1 0.00 0.00 0.00 44 1010.0
20260507132522 22 187 11.3 19.3 0.00 0.00 0.00 44 1010.1
20260507131525 22 208 14.5 22.5 0.00 0.00 0.00 43 1010.1
20260507130520 21 193 9.7 14.5 0.00 0.00 0.00 50 1010.3
20260507125516 21 179 9.7 16.1 0.00 0.00 0.00 50 1010.4
20260507124527 21 193 9.7 16.1 0.00 0.00 0.00 50 1010.5
20260507123523 22 185 11.3 19.3 0.00 0.00 0.00 46 1010.4
20260507122519 23 196 6.4 19.3 0.00 0.00 0.00 42 1010.5
20260507121530 25 159 6.4 14.5 0.00 0.00 0.00 41 1010.5
20260507120526 24 180 4.8 6.4 0.00 0.00 0.00 39 1010.7
20260507115521 24 143 3.2 8.0 0.00 0.00 0.00 38 1010.7
20260507114517 24 153 4.8 9.7 0.00 0.00 0.00 41 1010.8
20260507113528 23 164 4.8 9.7 0.00 0.00 0.00 42 1010.8
20260507112524 23 149 4.8 9.7 0.00 0.00 0.00 42 1010.9
20260507111521 23 209 6.4 11.3 0.00 0.00 0.00 42 1011.0
20260507110516 23 158 4.8 6.4 0.00 0.00 0.00 43 1011.0
20260507105526 22 170 1.6 6.4 0.00 0.00 0.00 44 1011.1
20260507104522 22 157 4.8 9.7 0.00 0.00 0.00 46 1011.1
20260507103518 22 146 1.6 12.9 0.00 0.00 0.00 45 1011.2
20260507102529 22 180 4.8 11.3 0.00 0.00 0.00 44 1011.3
20260507101524 22 208 3.2 11.3 0.00 0.00 0.00 45 1011.4
20260507100527 22 174 4.8 9.7 0.00 0.00 0.00 44 1011.5
20260507095522 22 174 4.8 11.3 0.00 0.00 0.00 44 1011.5
20260507094518 23 201 6.4 9.7 0.00 0.00 0.00 43 1011.5
20260507093528 23 192 0.0 8.0 0.00 0.00 0.00 45 1011.7
20260507092524 21 191 1.6 6.4 0.00 0.00 0.00 49 1011.6
20260507091520 22 177 3.2 8.0 0.00 0.00 0.00 46 1011.6
20260507090516 21 180 1.6 6.4 0.00 0.00 0.00 52 1011.6
20260507085527 21 173 3.2 9.7 0.00 0.00 0.00 54 1011.6
20260507084523 20 178 3.2 6.4 0.00 0.00 0.00 58 1011.6
20260507083519 18 198 1.6 6.4 0.00 0.00 0.00 60 1011.6
20260507082529 18 188 1.6 6.4 0.00 0.00 0.00 59 1011.6
20260507081525 18 180 0.0 4.8 0.00 0.00 0.00 60 1011.5
20260507080521 18 0.0 0.0 0.00 0.00 0.00 62 1011.2
20260507075517 17 180 0.0 3.2 0.00 0.00 0.00 62 1011.4
20260507074528 17 189 0.0 3.2 0.00 0.00 0.00 62 1011.2
20260507073523 17 0.0 0.0 0.00 0.00 0.00 66 1011.3
20260507072519 16 0.0 0.0 0.00 0.00 0.00 67 1011.2
20260507071515 16 0.0 0.0 0.00 0.00 0.00 68 1011.0
20260507070516 16 0.0 0.0 0.00 0.00 0.00 71 1010.8
20260507065527 15 0.0 0.0 0.00 0.00 0.00 72 1010.8
20260507064522 15 0.0 0.0 0.00 0.00 0.00 73 1010.7
20260507063518 15 0.0 0.0 0.00 0.00 0.00 74 1010.5
20260507062529 15 0.0 0.0 0.00 0.00 0.00 76 1010.6
20260507061525 15 0.0 0.0 0.00 0.00 0.00 77 1010.6
20260507060521 14 0.0 0.0 0.00 0.00 0.00 76 1010.5
20260507055517 14 0.0 0.0 0.00 0.00 0.00 77 1010.3
20260507054528 14 0.0 0.0 0.00 0.00 0.00 77 1010.2
20260507053523 13 0.0 0.0 0.00 0.00 0.00 77 1010.2
20260507052519 13 0.0 0.0 0.00 0.00 0.00 77 1010.2
20260507051530 13 0.0 0.0 0.00 0.00 0.00 77 1010.1
20260507050526 13 0.0 0.0 0.00 0.00 0.00 78 1009.9
20260507045522 13 0.0 0.0 0.00 0.00 0.00 77 1009.9
20260507044517 13 0.0 0.0 0.00 0.00 0.00 76 1009.6
20260507043528 13 0.0 0.0 0.00 0.00 0.00 76 1009.6
20260507042524 13 0.0 0.0 0.00 0.00 0.00 76 1009.5
20260507041520 13 0.0 0.0 0.00 0.00 0.00 76 1009.5
20260507040530 13 0.0 0.0 0.00 0.00 0.00 76 1009.4
20260507035526 13 0.0 0.0 0.00 0.00 0.00 77 1009.4
20260507034521 13 0.0 0.0 0.00 0.00 0.00 77 1009.5
20260507033517 13 0.0 0.0 0.00 0.00 0.00 76 1009.5
20260507032519 13 0.0 0.0 0.00 0.00 0.00 75 1009.4
20260507031515 13 0.0 0.0 0.00 0.00 0.00 74 1009.4
20260507030526 14 0.0 0.0 0.00 0.00 0.00 72 1009.4
20260507025522 14 0.0 0.0 0.00 0.00 0.00 72 1009.4
20260507024518 15 0.0 0.0 0.00 0.00 0.00 71 1009.4
20260507023529 15 0.0 0.0 0.00 0.00 0.00 71 1009.4
20260507022525 15 0.0 0.0 0.00 0.00 0.00 71 1009.5
20260507021520 15 0.0 0.0 0.00 0.00 0.00 71 1009.4
20260507020531 15 0.0 0.0 0.00 0.00 0.00 71 1009.5
20260507015517 15 315 0.0 3.2 0.00 0.00 0.00 71 1009.5
20260507014528 15 0.0 0.0 0.00 0.00 0.00 70 1009.5
20260507013525 15 0.0 0.0 0.00 0.00 0.00 70 1009.3
20260507012520 16 0.0 0.0 0.00 0.00 0.00 69 1009.3
20260507011516 16 0 0.0 1.6 0.00 0.00 0.00 69 1009.2
20260507010527 16 0.0 0.0 0.00 0.00 0.00 68 1009.1
20260507005522 16 276 1.6 6.4 0.00 0.00 0.00 68 1009.2
20260507004518 16 270 0.0 4.8 0.00 0.00 0.00 68 1009.2
20260507003529 16 321 0.0 4.8 0.00 0.00 0.00 67 1009.2
20260507002525 16 274 0.0 6.4 0.00 0.00 0.00 68 1009.2
20260507001521 16 250 0.0 6.4 0.00 0.00 0.00 68 1009.3
20260507000516 16 0.0 0.0 0.00 0.00 0.00 69 1009.5
20260506235527 16 171 0.0 6.4 0.00 0.00 0.00 69 1009.4
20260506234523 16 251 0.0 4.8 0.00 0.00 0.00 67 1009.5
20260506233519 16 297 0.0 6.4 0.00 0.00 0.00 67 1009.5
20260506232530 16 231 0.0 3.2 0.00 0.00 0.00 67 1009.5
20260506231526 16 270 0.0 3.2 0.00 0.00 0.00 67 1009.6
20260506230521 16 0.0 0.0 0.00 0.00 0.00 66 1009.6
20260506225517 16 315 0.0 4.8 0.00 0.00 0.00 66 1009.4
20260506224528 16 225 0.0 1.6 0.00 0.00 0.00 66 1009.5
20260506223524 16 270 0.0 1.6 0.00 0.00 0.00 66 1009.3
20260506222520 17 0.0 0.0 0.00 0.00 0.00 66 1009.2
20260506221516 17 0.0 0.0 0.00 0.00 0.00 66 1009.2
20260506220526 17 0.0 1.6 0.00 0.00 0.00 66 1009.1
20260506215522 16 270 0.0 3.2 0.00 0.00 0.00 67 1009.1
20260506214524 16 234 3.2 12.9 0.00 0.00 0.00 70 1009.3
20260506213520 15 253 0.0 4.8 0.00 0.00 0.00 76 1009.3
20260506212516 15 0.0 0.0 0.00 0.00 0.00 76 1009.1
20260506211527 14 0.0 0.0 0.00 0.00 0.00 75 1009.0
20260506210522 14 0.0 0.0 0.00 0.00 0.00 75 1009.0
20260506205518 15 0.0 0.0 0.00 0.00 0.00 74 1009.0
20260506204529 15 0.0 0.0 0.00 0.00 0.00 73 1008.9
20260506203525 15 0.0 0.0 0.00 0.00 0.00 73 1009.0
20260506202521 15 0.0 0.0 0.00 0.00 0.00 72 1008.9
20260506201517 15 0.0 0.0 0.00 0.00 0.00 71 1008.9
20260506200527 16 0.0 0.0 0.00 0.00 0.00 71 1008.8
20260506195522 16 214 0.0 3.2 0.00 0.00 0.00 70 1008.8
20260506194518 16 0.0 0.0 0.00 0.00 0.00 68 1008.8
20260506193529 16 0.0 0.0 0.00 0.00 0.00 68 1008.9
20260506192524 16 0.0 0.0 0.00 0.00 0.00 64 1008.6
20260506191520 17 180 0.0 1.6 0.00 0.00 0.00 64 1008.6
20260506190516 16 315 4.8 8.0 0.00 0.00 0.00 64 1008.4
20260506185527 17 191 0.0 4.8 0.00 0.00 0.00 61 1008.2
20260506184528 17 0.0 0.0 0.00 0.00 0.00 60 1008.3
20260506183523 17 180 0.0 1.6 0.00 0.00 0.00 59 1008.0
20260506182519 18 237 0.0 8.0 0.00 0.00 0.00 59 1008.0
20260506181515 18 211 0.0 6.4 0.00 0.00 0.00 59 1007.9
20260506180526 18 0.0 0.0 0.00 0.00 0.00 57 1007.7
20260506175522 18 247 0.0 4.8 0.00 0.00 0.00 56 1007.9